Overview Statistics Trail Chart Weather Telemetry Raw packets
 

This is the latest recevied weather packets stored in our database for station/object ea1bqo-1. If no packets are shown the sender has not sent any weather packets the latest 10 day(s).

<< 1 2 3 4 >>
Time Temp. Humidity Pressure Rain* Wind** Luminosity Snow
1788610620 34.44° C 10% 1016.8 hPa 0 mm - - -
1788610080 34.44° C 10% 1016.7 hPa 0 mm - - -
1788609540 34.44° C 10% 1017 hPa 0 mm - - -
1788609000 34.44° C 10% 1017 hPa 0 mm - - -
1788608460 34.44° C 10% 1017 hPa 0 mm - - -
1788607920 34.44° C 10% 1017 hPa 0 mm - - -
1788607380 35° C 10% 1017.1 hPa 0 mm - - -
1788606840 34.44° C 10% 1017.3 hPa 0 mm - - -
1788606300 34.44° C 10% 1017.4 hPa 0 mm - - -
1788605760 34.44° C 10% 1017.4 hPa 0 mm - - -
1788605220 33.89° C 10% 1017.4 hPa 0 mm - - -
1788604680 33.33° C 10% 1017.5 hPa 0 mm - - -
1788604140 31.67° C 16% 1017.8 hPa 0 mm - - -
1788603600 30.56° C 24% 1018 hPa 0 mm - - -
1788603060 30.56° C 22% 1017.9 hPa 0 mm - - -
1788602520 30° C 25% 1018 hPa 0 mm - - -
1788601980 29.44° C 28% 1018 hPa 0 mm - - -
1788601440 28.33° C 30% 1018.1 hPa 0 mm - - -
1788600900 27.78° C 32% 1018.2 hPa 0 mm - - -
1788600360 27.22° C 34% 1018.1 hPa 0 mm - - -
1788599820 26.67° C 37% 1018.3 hPa 0 mm - - -
1788599280 25.56° C 39% 1018.3 hPa 0 mm - - -
1788598740 24.44° C 42% 1018.6 hPa 0 mm - - -
1788598200 23.89° C 45% 1018.6 hPa 0 mm - - -
1788597660 23.33° C 48% 1018.6 hPa 0 mm - - -

* Rain latest hour (hover to see other rain measurements)
** Current wind speed in m/s (hover to see current wind gust speed)